Календарь
icon
ПнВтСрЧтПтСбВс

Курсы валют НБУ на 4 декабря 2019

icon
Валюта Дата Курс, грн Изменение, грн
036 AUD австралийский доллар 24.11.19 16,48029800 -0,47953600
031 AZN азербайджанский манат 24.11.19 14,23158200 -0,07824800
974 BYN белорусский рубль 24.11.19 11,81390000 +11,81266000
124 CAD канадский доллар 24.11.19 18,18092000 -0,75632500
756 CHF швейцарский франк 24.11.19 24,39827300 -1,08124600
156 CNY юанов женьминьби 24.11.19 3,44311400 -0,07964600
203 CZK чешская крона 24.11.19 1,05145800 -0,01760200
208 DKK датская крона 24.11.19 3,59059300 -0,12559000
233 EEK эстонская крона 31.12.10 0,67574700 +0,00750400
978 EUR ЕВРО 24.11.19 26,83322000 -0,87575700
826 GBP английский фунт стерлинг 24.11.19 31,36627400 +0,85650000
348 HUF угорский форинт 24.11.19 0,08039900 -0,00322800
352 ISK исландская крона 31.10.16 0,22425900 -
392 JPY японский ен 24.11.19 0,22275600 -0,01476300
398 KZT казахстанский тенге 24.11.19 0,06260700 -0,00249300
440 LTL литовский лит 01.01.15 5,57023500 -
428 LVL латвийский лат 03.01.14 15,73315800 -
498 MDL молдовский лев 24.11.19 1,38783400 -0,03544400
578 NOK норвежская крона 24.11.19 2,65628100 -0,12050400
985 PLN польский злотый 24.11.19 6,24464100 -0,09739200
643 RUB русский рубль 24.11.19 0,37896000 -0,00024000
752 SEK шведская крона 24.11.19 2,51794400 -0,06035500
702 SGD сингапурский доллар 24.11.19 17,77269900 -0,39354800
703 SKK словацкая крона 30.12.08 0,36420000 +0,00735500
795 TMM туркменский манат 07.04.14 3,93796500 -
792 TRY турецкая лира 24.11.19 4,25269400 -0,98769100
840 USD доллар США 24.11.19 24,19368900 -1,06978400
860 UZS узбецкий сум 01.02.17 0,00829300 +0,00002600
960 XDR СПЗ 24.11.19 33,30858300 -1,26041500
icon
Облачность:пасмурно пасмурно
Темп. днем:-4..-2 °C
Темп. ночью:-8..-6 °C
Давление:743 мм
Влажность:85 %
Ветер:С, 1 м/с
icon
USDusd24,19(-1,06978)
RUBrub0,38(-0,00024)
EUReur26,83(-0,87576)
icon
Вс. 15 Декабрь 2019
icon
Логин:
Код: ---
 
Реклама
icon